Year,Month,Day,Hour,Minute,Value (Times are PST for barometer in hPa)
2022,07,18,00,00,993.36
2022,07,18,00,01,993.36
2022,07,18,00,02,993.43
2022,07,18,00,03,993.43
2022,07,18,00,04,993.43
2022,07,18,00,05,993.43
2022,07,18,00,06,993.47
2022,07,18,00,07,993.43
2022,07,18,00,08,993.47
2022,07,18,00,09,993.43
2022,07,18,00,10,993.43
2022,07,18,00,11,993.40
2022,07,18,00,12,993.43
2022,07,18,00,13,993.43
2022,07,18,00,14,993.43
2022,07,18,00,15,993.43
2022,07,18,00,16,993.40
2022,07,18,00,17,993.43
2022,07,18,00,18,993.43
2022,07,18,00,19,993.43
2022,07,18,00,20,993.43
2022,07,18,00,21,993.40
2022,07,18,00,22,993.43
2022,07,18,00,23,993.47
2022,07,18,00,24,993.43
2022,07,18,00,25,993.40
2022,07,18,00,26,993.43
2022,07,18,00,27,993.43
2022,07,18,00,28,993.43
2022,07,18,00,29,993.47
2022,07,18,00,30,993.47
2022,07,18,00,31,993.50
2022,07,18,00,32,993.47
2022,07,18,00,33,993.47
2022,07,18,00,34,993.50
2022,07,18,00,35,993.50
2022,07,18,00,36,993.47
2022,07,18,00,37,993.53
2022,07,18,00,38,993.50
2022,07,18,00,39,993.50
2022,07,18,00,40,993.53
2022,07,18,00,41,993.50
2022,07,18,00,42,993.50
2022,07,18,00,43,993.50
2022,07,18,00,44,993.50
2022,07,18,00,45,993.47
2022,07,18,00,46,993.50
2022,07,18,00,47,993.50
2022,07,18,00,48,993.50
2022,07,18,00,49,993.47
2022,07,18,00,50,993.47
2022,07,18,00,51,993.53
2022,07,18,00,52,993.50
2022,07,18,00,53,993.47
2022,07,18,00,54,993.53
2022,07,18,00,55,993.53
2022,07,18,00,56,993.50
2022,07,18,00,57,993.50
2022,07,18,00,58,993.50
2022,07,18,00,59,993.47
2022,07,18,01,00,993.50
2022,07,18,01,01,993.47
2022,07,18,01,02,993.43
2022,07,18,01,03,993.43
2022,07,18,01,04,993.43
2022,07,18,01,05,993.43
2022,07,18,01,06,993.40
2022,07,18,01,07,993.43
2022,07,18,01,08,993.40
2022,07,18,01,09,993.43
2022,07,18,01,10,993.43
2022,07,18,01,11,993.40
2022,07,18,01,12,993.40
2022,07,18,01,13,993.40
2022,07,18,01,14,993.43
2022,07,18,01,15,993.40
2022,07,18,01,16,993.40
2022,07,18,01,17,993.43
2022,07,18,01,18,993.40
2022,07,18,01,19,993.43
2022,07,18,01,20,993.47
2022,07,18,01,21,993.50
2022,07,18,01,22,993.47
2022,07,18,01,23,993.47
2022,07,18,01,24,993.50
2022,07,18,01,25,993.50
2022,07,18,01,26,993.50
2022,07,18,01,27,993.50
2022,07,18,01,28,993.47
2022,07,18,01,29,993.50
2022,07,18,01,30,993.43
2022,07,18,01,31,993.53
2022,07,18,01,32,993.50
2022,07,18,01,33,993.50
2022,07,18,01,34,993.50
2022,07,18,01,35,993.53
2022,07,18,01,36,993.53
2022,07,18,01,37,993.53
2022,07,18,01,38,993.53
2022,07,18,01,39,993.57
2022,07,18,01,40,993.57
2022,07,18,01,41,993.60
2022,07,18,01,42,993.60
2022,07,18,01,43,993.60
2022,07,18,01,44,993.57
2022,07,18,01,45,993.60
2022,07,18,01,46,993.57
2022,07,18,01,47,993.57
2022,07,18,01,48,993.60
2022,07,18,01,49,993.60
2022,07,18,01,50,993.60
2022,07,18,01,51,993.57
2022,07,18,01,52,993.57
2022,07,18,01,53,993.60
2022,07,18,01,54,993.53
2022,07,18,01,55,993.53
2022,07,18,01,56,993.53
2022,07,18,01,57,993.50
2022,07,18,01,58,993.53
2022,07,18,01,59,993.50
2022,07,18,02,00,993.53
2022,07,18,02,01,993.50
2022,07,18,02,02,993.53
2022,07,18,02,03,993.53
2022,07,18,02,04,993.53
2022,07,18,02,05,993.53
2022,07,18,02,06,993.53
2022,07,18,02,07,993.50
2022,07,18,02,08,993.50
2022,07,18,02,09,993.50
2022,07,18,02,10,993.47
2022,07,18,02,11,993.47
2022,07,18,02,12,993.43
2022,07,18,02,13,993.43
2022,07,18,02,14,993.47
2022,07,18,02,15,993.47
2022,07,18,02,16,993.50
2022,07,18,02,17,993.50
2022,07,18,02,18,993.50
2022,07,18,02,19,993.53
2022,07,18,02,20,993.50
2022,07,18,02,21,993.50
2022,07,18,02,22,993.50
2022,07,18,02,23,993.50
2022,07,18,02,24,993.50
2022,07,18,02,25,993.53
2022,07,18,02,26,993.60
2022,07,18,02,27,993.60
2022,07,18,02,28,993.60
2022,07,18,02,29,993.60
2022,07,18,02,30,993.63
2022,07,18,02,31,993.63
2022,07,18,02,32,993.63
2022,07,18,02,33,993.63
2022,07,18,02,34,993.63
2022,07,18,02,35,993.63
2022,07,18,02,36,993.63
2022,07,18,02,37,993.63
2022,07,18,02,38,993.67
2022,07,18,02,39,993.67
2022,07,18,02,40,993.70
2022,07,18,02,41,993.70
2022,07,18,02,42,993.67
2022,07,18,02,43,993.63
2022,07,18,02,44,993.63
2022,07,18,02,45,993.63
2022,07,18,02,46,993.67
2022,07,18,02,47,993.67
2022,07,18,02,48,993.67
2022,07,18,02,49,993.63
2022,07,18,02,50,993.67
2022,07,18,02,51,993.67
2022,07,18,02,52,993.63
2022,07,18,02,53,993.63
2022,07,18,02,54,993.63
2022,07,18,02,55,993.67
2022,07,18,02,56,993.70
2022,07,18,02,57,993.67
2022,07,18,02,58,993.67
2022,07,18,02,59,993.67
2022,07,18,03,00,993.67
2022,07,18,03,01,993.67
2022,07,18,03,02,993.67
2022,07,18,03,03,993.63
2022,07,18,03,04,993.63
2022,07,18,03,05,993.63
2022,07,18,03,06,993.63
2022,07,18,03,07,993.67
2022,07,18,03,08,993.70
2022,07,18,03,09,993.70
2022,07,18,03,10,993.70
2022,07,18,03,11,993.77
2022,07,18,03,12,993.77
2022,07,18,03,13,993.77
2022,07,18,03,14,993.80
2022,07,18,03,15,993.80
2022,07,18,03,16,993.80
2022,07,18,03,17,993.84
2022,07,18,03,18,993.87
2022,07,18,03,19,993.91
2022,07,18,03,20,993.91
2022,07,18,03,21,993.91
2022,07,18,03,22,993.91
2022,07,18,03,23,993.94
2022,07,18,03,24,993.94
2022,07,18,03,25,993.94
2022,07,18,03,26,993.91
2022,07,18,03,27,993.87
2022,07,18,03,28,993.87
2022,07,18,03,29,993.91
2022,07,18,03,30,993.87
2022,07,18,03,31,993.87
2022,07,18,03,32,993.91
2022,07,18,03,33,993.87
2022,07,18,03,34,993.91
2022,07,18,03,35,993.87
2022,07,18,03,36,993.87
2022,07,18,03,37,993.87
2022,07,18,03,38,993.94
2022,07,18,03,39,993.97
2022,07,18,03,40,993.97
2022,07,18,03,41,994.01
2022,07,18,03,42,994.01
2022,07,18,03,43,993.97
2022,07,18,03,44,994.01
2022,07,18,03,45,994.04
2022,07,18,03,46,994.04
2022,07,18,03,47,994.04
2022,07,18,03,48,994.04
2022,07,18,03,49,994.01
2022,07,18,03,50,994.04
2022,07,18,03,51,994.04
2022,07,18,03,52,994.04
2022,07,18,03,53,994.04
2022,07,18,03,54,994.07
2022,07,18,03,55,994.07
2022,07,18,03,56,994.07
2022,07,18,03,57,994.07
2022,07,18,03,58,994.11
2022,07,18,03,59,994.11
2022,07,18,04,00,994.11
2022,07,18,04,01,994.11
2022,07,18,04,02,994.11
2022,07,18,04,03,994.11
2022,07,18,04,04,994.18
2022,07,18,04,05,994.11
2022,07,18,04,06,994.11
2022,07,18,04,07,994.18
2022,07,18,04,08,994.11
2022,07,18,04,09,994.18
2022,07,18,04,10,994.18
2022,07,18,04,11,994.21
2022,07,18,04,12,994.21
2022,07,18,04,13,994.28
2022,07,18,04,14,994.24
2022,07,18,04,15,994.24
2022,07,18,04,16,994.24
2022,07,18,04,17,994.28
2022,07,18,04,18,994.28
2022,07,18,04,19,994.24
2022,07,18,04,20,994.24
2022,07,18,04,21,994.24
2022,07,18,04,22,994.28
2022,07,18,04,23,994.28
2022,07,18,04,24,994.28
2022,07,18,04,25,994.28
2022,07,18,04,26,994.28
2022,07,18,04,27,994.31
2022,07,18,04,28,994.31
2022,07,18,04,29,994.38
2022,07,18,04,30,994.35
2022,07,18,04,31,994.35
2022,07,18,04,32,994.38
2022,07,18,04,33,994.38
2022,07,18,04,34,994.38
2022,07,18,04,35,994.38
2022,07,18,04,36,994.45
2022,07,18,04,37,994.45
2022,07,18,04,38,994.45
2022,07,18,04,39,994.41
2022,07,18,04,40,994.45
2022,07,18,04,41,994.45
2022,07,18,04,42,994.45
2022,07,18,04,43,994.45
2022,07,18,04,44,994.45
2022,07,18,04,45,994.48
2022,07,18,04,46,994.48
2022,07,18,04,47,994.52
2022,07,18,04,48,994.55
2022,07,18,04,49,994.55
2022,07,18,04,50,994.55
2022,07,18,04,51,994.52
2022,07,18,04,52,994.55
2022,07,18,04,53,994.48
2022,07,18,04,54,994.52
2022,07,18,04,55,994.52
2022,07,18,04,56,994.58
2022,07,18,04,57,994.58
2022,07,18,04,58,994.58
2022,07,18,04,59,994.62
2022,07,18,05,00,994.58
2022,07,18,05,01,994.62
2022,07,18,05,02,994.65
2022,07,18,05,03,994.68
2022,07,18,05,04,994.68
2022,07,18,05,05,994.65
2022,07,18,05,06,994.62
2022,07,18,05,07,994.62
2022,07,18,05,08,994.62
2022,07,18,05,09,994.58
2022,07,18,05,10,994.58
2022,07,18,05,11,994.58
2022,07,18,05,12,994.58
2022,07,18,05,13,994.55
2022,07,18,05,14,994.55
2022,07,18,05,15,994.52
2022,07,18,05,16,994.55
2022,07,18,05,17,994.52
2022,07,18,05,18,994.48
2022,07,18,05,19,994.52
2022,07,18,05,20,994.48
2022,07,18,05,21,994.48
2022,07,18,05,22,994.48
2022,07,18,05,23,994.52
2022,07,18,05,24,994.48
2022,07,18,05,25,994.52
2022,07,18,05,26,994.55
2022,07,18,05,27,994.55
2022,07,18,05,28,994.52
2022,07,18,05,29,994.52
2022,07,18,05,30,994.58
2022,07,18,05,31,994.52
2022,07,18,05,32,994.55
2022,07,18,05,33,994.52
2022,07,18,05,34,994.58
2022,07,18,05,35,994.58
2022,07,18,05,36,994.55
2022,07,18,05,37,994.55
2022,07,18,05,38,994.58
2022,07,18,05,39,994.55
2022,07,18,05,40,994.55
2022,07,18,05,41,994.62
2022,07,18,05,42,994.58
2022,07,18,05,43,994.55
2022,07,18,05,44,994.62
2022,07,18,05,45,994.62
2022,07,18,05,46,994.62
2022,07,18,05,47,994.62
2022,07,18,05,48,994.62
2022,07,18,05,49,994.62
2022,07,18,05,50,994.62
2022,07,18,05,51,994.62
2022,07,18,05,52,994.62
2022,07,18,05,53,994.62
2022,07,18,05,54,994.62
2022,07,18,05,55,994.58
2022,07,18,05,56,994.58
2022,07,18,05,57,994.58
2022,07,18,05,58,994.58
2022,07,18,05,59,994.52
2022,07,18,06,00,994.58
2022,07,18,06,01,994.58
2022,07,18,06,02,994.62
2022,07,18,06,03,994.58
2022,07,18,06,04,994.65
2022,07,18,06,05,994.65
2022,07,18,06,06,994.65
2022,07,18,06,07,994.68
2022,07,18,06,08,994.65
2022,07,18,06,09,994.68
2022,07,18,06,10,994.68
2022,07,18,06,11,994.68
2022,07,18,06,12,994.65
2022,07,18,06,13,994.65
2022,07,18,06,14,994.65
2022,07,18,06,15,994.68
2022,07,18,06,16,994.75
2022,07,18,06,17,994.72
2022,07,18,06,18,994.68
2022,07,18,06,19,994.72
2022,07,18,06,20,994.72
2022,07,18,06,21,994.75
2022,07,18,06,22,994.72
2022,07,18,06,23,994.75
2022,07,18,06,24,994.75
2022,07,18,06,25,994.75
2022,07,18,06,26,994.82
2022,07,18,06,27,994.75
2022,07,18,06,28,994.75
2022,07,18,06,29,994.79
2022,07,18,06,30,994.79
2022,07,18,06,31,994.82
2022,07,18,06,32,994.79
2022,07,18,06,33,994.79
2022,07,18,06,34,994.82
2022,07,18,06,35,994.79
2022,07,18,06,36,994.79
2022,07,18,06,37,994.79
2022,07,18,06,38,994.79
2022,07,18,06,39,994.79
2022,07,18,06,40,994.79
2022,07,18,06,41,994.82
2022,07,18,06,42,994.82
2022,07,18,06,43,994.85
2022,07,18,06,44,994.85
2022,07,18,06,45,994.85
2022,07,18,06,46,994.85
2022,07,18,06,47,994.79
2022,07,18,06,48,994.79
2022,07,18,06,49,994.79
2022,07,18,06,50,994.79
2022,07,18,06,51,994.82
2022,07,18,06,52,994.89
2022,07,18,06,53,994.85
2022,07,18,06,54,994.89
2022,07,18,06,55,994.89
2022,07,18,06,56,994.89
2022,07,18,06,57,994.92
2022,07,18,06,58,994.96
2022,07,18,06,59,994.99
2022,07,18,07,00,994.99
2022,07,18,07,01,994.96
2022,07,18,07,02,994.99
2022,07,18,07,03,994.96
2022,07,18,07,04,994.99
2022,07,18,07,05,994.92
2022,07,18,07,06,994.96
2022,07,18,07,07,994.96
2022,07,18,07,08,994.96
2022,07,18,07,09,994.96
2022,07,18,07,10,994.99
2022,07,18,07,11,994.99
2022,07,18,07,12,994.96
2022,07,18,07,13,994.99
2022,07,18,07,14,994.96
2022,07,18,07,15,994.96
2022,07,18,07,16,994.96
2022,07,18,07,17,994.99
2022,07,18,07,18,994.99
2022,07,18,07,19,995.02
2022,07,18,07,20,994.96
2022,07,18,07,21,994.99
2022,07,18,07,22,994.99
2022,07,18,07,23,994.99
2022,07,18,07,24,994.99
2022,07,18,07,25,995.02
2022,07,18,07,26,994.96
2022,07,18,07,27,995.02
2022,07,18,07,28,994.99
2022,07,18,07,29,995.02
2022,07,18,07,30,995.06
2022,07,18,07,31,995.12
2022,07,18,07,32,995.16
2022,07,18,07,33,995.19
2022,07,18,07,34,995.16
2022,07,18,07,35,995.12
2022,07,18,07,36,995.16
2022,07,18,07,37,995.26
2022,07,18,07,38,995.23
2022,07,18,07,39,995.23
2022,07,18,07,40,995.23
2022,07,18,07,41,995.29
2022,07,18,07,42,995.29
2022,07,18,07,43,995.26
2022,07,18,07,44,995.29
2022,07,18,07,45,995.26
2022,07,18,07,46,995.23
2022,07,18,07,47,995.29
2022,07,18,07,48,995.33
2022,07,18,07,49,995.26
2022,07,18,07,50,995.26
2022,07,18,07,51,995.26
2022,07,18,07,52,995.29
2022,07,18,07,53,995.26
2022,07,18,07,54,995.26
2022,07,18,07,55,995.26
2022,07,18,07,56,995.29
2022,07,18,07,57,995.33
2022,07,18,07,58,995.33
2022,07,18,07,59,995.40
2022,07,18,08,00,995.40
2022,07,18,08,01,995.40
2022,07,18,08,02,995.40
2022,07,18,08,03,995.43
2022,07,18,08,04,995.43
2022,07,18,08,05,995.43
2022,07,18,08,06,995.50
2022,07,18,08,07,995.50
2022,07,18,08,08,995.50
2022,07,18,08,09,995.56
2022,07,18,08,10,995.53
2022,07,18,08,11,995.56
2022,07,18,08,12,995.56
2022,07,18,08,13,995.53
2022,07,18,08,14,995.53
2022,07,18,08,15,995.60
2022,07,18,08,16,995.60
2022,07,18,08,17,995.63
2022,07,18,08,18,995.63
2022,07,18,08,19,995.67
2022,07,18,08,20,995.70
2022,07,18,08,21,995.67
2022,07,18,08,22,995.70
2022,07,18,08,23,995.73
2022,07,18,08,24,995.77
2022,07,18,08,25,995.84
2022,07,18,08,26,995.80
2022,07,18,08,27,995.84
2022,07,18,08,28,995.84
2022,07,18,08,29,995.87
2022,07,18,08,30,995.94
2022,07,18,08,31,995.90
2022,07,18,08,32,995.94
2022,07,18,08,33,995.94
2022,07,18,08,34,995.94
2022,07,18,08,35,995.94
2022,07,18,08,36,996.01
2022,07,18,08,37,996.01
2022,07,18,08,38,996.01
2022,07,18,08,39,996.04
2022,07,18,08,40,996.07
2022,07,18,08,41,996.07
2022,07,18,08,42,996.07
2022,07,18,08,43,996.04
2022,07,18,08,44,996.11
2022,07,18,08,45,996.07
2022,07,18,08,46,996.07
2022,07,18,08,47,996.07
2022,07,18,08,48,996.07
2022,07,18,08,49,996.14
2022,07,18,08,50,996.14
2022,07,18,08,51,996.17
2022,07,18,08,52,996.17
2022,07,18,08,53,996.21
2022,07,18,08,54,996.24
2022,07,18,08,55,996.24
2022,07,18,08,56,996.28
2022,07,18,08,57,996.28
2022,07,18,08,58,996.34
2022,07,18,08,59,996.34
2022,07,18,09,00,996.34
2022,07,18,09,01,996.41
2022,07,18,09,02,996.38
2022,07,18,09,03,996.41
2022,07,18,09,04,996.45
2022,07,18,09,05,996.45
2022,07,18,09,06,996.55
2022,07,18,09,07,996.48
2022,07,18,09,08,996.51
2022,07,18,09,09,996.45
2022,07,18,09,10,996.48
2022,07,18,09,11,996.51
2022,07,18,09,12,996.48
2022,07,18,09,13,996.51
2022,07,18,09,14,996.48
2022,07,18,09,15,996.48
2022,07,18,09,16,996.51
2022,07,18,09,17,996.51
2022,07,18,09,18,996.51
2022,07,18,09,19,996.51
2022,07,18,09,20,996.55
2022,07,18,09,21,996.58
2022,07,18,09,22,996.61
2022,07,18,09,23,996.58
2022,07,18,09,24,996.58
2022,07,18,09,25,996.65
2022,07,18,09,26,996.61
2022,07,18,09,27,996.65
2022,07,18,09,28,996.61
2022,07,18,09,29,996.61
2022,07,18,09,30,996.58
2022,07,18,09,31,996.55
2022,07,18,09,32,996.55
2022,07,18,09,33,996.51
2022,07,18,09,34,996.55
2022,07,18,09,35,996.58
2022,07,18,09,36,996.58
2022,07,18,09,37,996.55
2022,07,18,09,38,996.58
2022,07,18,09,39,996.58
2022,07,18,09,40,996.55
2022,07,18,09,41,996.55
2022,07,18,09,42,996.55
2022,07,18,09,43,996.58
2022,07,18,09,44,996.58
2022,07,18,09,45,996.61
2022,07,18,09,46,996.55
2022,07,18,09,47,996.61
2022,07,18,09,48,996.58
2022,07,18,09,49,996.61
2022,07,18,09,50,996.61
2022,07,18,09,51,996.58
2022,07,18,09,52,996.65
2022,07,18,09,53,996.61
2022,07,18,09,54,996.65
2022,07,18,09,55,996.65
2022,07,18,09,56,996.75
2022,07,18,09,57,996.75
2022,07,18,09,58,996.78
2022,07,18,09,59,996.65
2022,07,18,10,00,996.72
2022,07,18,10,01,996.72
2022,07,18,10,02,996.72
2022,07,18,10,03,996.75
2022,07,18,10,04,996.75
2022,07,18,10,05,996.78
2022,07,18,10,06,996.78
2022,07,18,10,07,996.78
2022,07,18,10,08,996.82
2022,07,18,10,09,996.82
2022,07,18,10,10,996.85
2022,07,18,10,11,996.85
2022,07,18,10,12,996.85
2022,07,18,10,13,996.89
2022,07,18,10,14,996.92
2022,07,18,10,15,996.92
2022,07,18,10,16,996.92
2022,07,18,10,17,996.95
2022,07,18,10,18,996.89
2022,07,18,10,19,996.92
2022,07,18,10,20,996.92
2022,07,18,10,21,996.89
2022,07,18,10,22,996.92
2022,07,18,10,23,996.92
2022,07,18,10,24,996.92
2022,07,18,10,25,996.95
2022,07,18,10,26,996.92
2022,07,18,10,27,996.99
2022,07,18,10,28,996.95
2022,07,18,10,29,996.99
2022,07,18,10,30,996.95
2022,07,18,10,31,996.95
2022,07,18,10,32,996.99
2022,07,18,10,33,996.95
2022,07,18,10,34,997.02
2022,07,18,10,35,997.02
2022,07,18,10,36,997.02
2022,07,18,10,37,997.02
2022,07,18,10,38,997.02
2022,07,18,10,39,997.02
2022,07,18,10,40,996.99
2022,07,18,10,41,997.09
2022,07,18,10,42,997.05
2022,07,18,10,43,997.09
2022,07,18,10,44,997.05
2022,07,18,10,45,997.05
2022,07,18,10,46,997.12
2022,07,18,10,47,997.09
2022,07,18,10,48,997.09
2022,07,18,10,49,997.12
2022,07,18,10,50,997.16
2022,07,18,10,51,997.19
2022,07,18,10,52,997.16
2022,07,18,10,53,997.22
2022,07,18,10,54,997.22
2022,07,18,10,55,997.26
2022,07,18,10,56,997.26
2022,07,18,10,57,997.26
2022,07,18,10,58,997.33
2022,07,18,10,59,997.33
2022,07,18,11,00,997.33
2022,07,18,11,01,997.33
2022,07,18,11,02,997.33
2022,07,18,11,03,997.39
2022,07,18,11,04,997.39
2022,07,18,11,05,997.39
2022,07,18,11,06,997.36
2022,07,18,11,07,997.36
2022,07,18,11,08,997.39
2022,07,18,11,09,997.43
2022,07,18,11,10,997.43
2022,07,18,11,11,997.43
2022,07,18,11,12,997.46
2022,07,18,11,13,997.50
2022,07,18,11,14,997.46
2022,07,18,11,15,997.50
2022,07,18,11,16,997.53
2022,07,18,11,17,997.53
2022,07,18,11,18,997.56
2022,07,18,11,19,997.53
2022,07,18,11,20,997.60
2022,07,18,11,21,997.56
2022,07,18,11,22,997.66
2022,07,18,11,23,997.66
2022,07,18,11,24,997.66
2022,07,18,11,25,997.66
2022,07,18,11,26,997.70
2022,07,18,11,27,997.77
2022,07,18,11,28,997.73
2022,07,18,11,29,997.73
2022,07,18,11,30,997.73
2022,07,18,11,31,997.73
2022,07,18,11,32,997.73
2022,07,18,11,33,997.77
2022,07,18,11,34,997.83
2022,07,18,11,35,997.73
2022,07,18,11,36,997.80
2022,07,18,11,37,997.80
2022,07,18,11,38,997.83
2022,07,18,11,39,997.90
2022,07,18,11,40,997.90
2022,07,18,11,41,997.87
2022,07,18,11,42,997.90
2022,07,18,11,43,997.90
2022,07,18,11,44,997.94
2022,07,18,11,45,997.90
2022,07,18,11,46,997.94
2022,07,18,11,47,997.97
2022,07,18,11,48,997.94
2022,07,18,11,49,997.97
2022,07,18,11,50,997.94
2022,07,18,11,51,997.94
2022,07,18,11,52,998.00
2022,07,18,11,53,998.00
2022,07,18,11,54,998.10
2022,07,18,11,55,998.04
2022,07,18,11,56,998.07
2022,07,18,11,57,998.07
2022,07,18,11,58,998.07
2022,07,18,11,59,998.10
2022,07,18,12,00,998.10
2022,07,18,12,01,998.10
2022,07,18,12,02,998.10
2022,07,18,12,03,998.14
2022,07,18,12,04,998.14
2022,07,18,12,05,998.17
2022,07,18,12,06,998.17
2022,07,18,12,07,998.21
2022,07,18,12,08,998.17
2022,07,18,12,09,998.21
2022,07,18,12,10,998.21
2022,07,18,12,11,998.24
2022,07,18,12,12,998.27
2022,07,18,12,13,998.24
2022,07,18,12,14,998.27
2022,07,18,12,15,998.27
2022,07,18,12,16,998.34
2022,07,18,12,17,998.34
2022,07,18,12,18,998.34
2022,07,18,12,19,998.34
2022,07,18,12,20,998.38
2022,07,18,12,21,998.41
2022,07,18,12,22,998.41
2022,07,18,12,23,998.41
2022,07,18,12,24,998.41
2022,07,18,12,25,998.44
2022,07,18,12,26,998.44
2022,07,18,12,27,998.44
2022,07,18,12,28,998.41
2022,07,18,12,29,998.48
2022,07,18,12,30,998.44
2022,07,18,12,31,998.48
2022,07,18,12,32,998.51
2022,07,18,12,33,998.48
2022,07,18,12,34,998.51
2022,07,18,12,35,998.51
2022,07,18,12,36,998.54
2022,07,18,12,37,998.51
2022,07,18,12,38,998.58
2022,07,18,12,39,998.58
2022,07,18,12,40,998.54
2022,07,18,12,41,998.58
2022,07,18,12,42,998.58
2022,07,18,12,43,998.61
2022,07,18,12,44,998.65
2022,07,18,12,45,998.65
2022,07,18,12,46,998.65
2022,07,18,12,47,998.65
2022,07,18,12,48,998.65
2022,07,18,12,49,998.68
2022,07,18,12,50,998.65
2022,07,18,12,51,998.65
2022,07,18,12,52,998.65
2022,07,18,12,53,998.68
2022,07,18,12,54,998.71
2022,07,18,12,55,998.75
2022,07,18,12,56,998.78
2022,07,18,12,57,998.78
2022,07,18,12,58,998.75
2022,07,18,12,59,998.78
2022,07,18,13,00,998.82
2022,07,18,13,01,998.82
2022,07,18,13,02,998.88
2022,07,18,13,03,998.95
2022,07,18,13,04,998.95
2022,07,18,13,05,998.95
2022,07,18,13,06,998.99
2022,07,18,13,07,998.99
2022,07,18,13,08,999.02
2022,07,18,13,09,998.99
2022,07,18,13,10,999.02
2022,07,18,13,11,999.02
2022,07,18,13,12,999.02
2022,07,18,13,13,999.05
2022,07,18,13,14,999.02
2022,07,18,13,15,999.05
2022,07,18,13,16,999.02
2022,07,18,13,17,999.05
2022,07,18,13,18,999.09
2022,07,18,13,19,999.09
2022,07,18,13,20,999.09
2022,07,18,13,21,999.09
2022,07,18,13,22,999.09
2022,07,18,13,23,999.12
2022,07,18,13,24,999.09
2022,07,18,13,25,999.12
2022,07,18,13,26,999.12
2022,07,18,13,27,999.15
2022,07,18,13,28,999.15
2022,07,18,13,29,999.15
2022,07,18,13,30,999.15
2022,07,18,13,31,999.15
2022,07,18,13,32,999.19
2022,07,18,13,33,999.19
2022,07,18,13,34,999.19
2022,07,18,13,35,999.22
2022,07,18,13,36,999.22
2022,07,18,13,37,999.26
2022,07,18,13,38,999.26
2022,07,18,13,39,999.26
2022,07,18,13,40,999.29
2022,07,18,13,41,999.32
2022,07,18,13,42,999.32
2022,07,18,13,43,999.29
2022,07,18,13,44,999.32
2022,07,18,13,45,999.32
2022,07,18,13,46,999.32
2022,07,18,13,47,999.32
2022,07,18,13,48,999.32
2022,07,18,13,49,999.36
2022,07,18,13,50,999.32
2022,07,18,13,51,999.36
2022,07,18,13,52,999.36
2022,07,18,13,53,999.36
2022,07,18,13,54,999.36
2022,07,18,13,55,999.36
2022,07,18,13,56,999.39
2022,07,18,13,57,999.46
2022,07,18,13,58,999.46
2022,07,18,13,59,999.43
2022,07,18,14,00,999.46
2022,07,18,14,01,999.46
2022,07,18,14,02,999.46
2022,07,18,14,03,999.43
2022,07,18,14,04,999.46
2022,07,18,14,05,999.49
2022,07,18,14,06,999.46
2022,07,18,14,07,999.46
2022,07,18,14,08,999.43
2022,07,18,14,09,999.49
2022,07,18,14,10,999.43
2022,07,18,14,11,999.49
2022,07,18,14,12,999.46
2022,07,18,14,13,999.46
2022,07,18,14,14,999.43
2022,07,18,14,15,999.43
2022,07,18,14,16,999.46
2022,07,18,14,17,999.46
2022,07,18,14,18,999.49
2022,07,18,14,19,999.53
2022,07,18,14,20,999.53
2022,07,18,14,21,999.53
2022,07,18,14,22,999.53
2022,07,18,14,23,999.53
2022,07,18,14,24,999.63
2022,07,18,14,25,999.66
2022,07,18,14,26,999.66
2022,07,18,14,27,999.63
2022,07,18,14,28,999.63
2022,07,18,14,29,999.63
2022,07,18,14,30,999.59
2022,07,18,14,31,999.63
2022,07,18,14,32,999.66
2022,07,18,14,33,999.66
2022,07,18,14,34,999.70
2022,07,18,14,35,999.70
2022,07,18,14,36,999.73
2022,07,18,14,37,999.73
2022,07,18,14,38,999.76
2022,07,18,14,39,999.73
2022,07,18,14,40,999.73
2022,07,18,14,41,999.76
2022,07,18,14,42,999.70
2022,07,18,14,43,999.70
2022,07,18,14,44,999.73
2022,07,18,14,45,999.73
2022,07,18,14,46,999.73
2022,07,18,14,47,999.73
2022,07,18,14,48,999.76
2022,07,18,14,49,999.83
2022,07,18,14,50,999.80
2022,07,18,14,51,999.76
2022,07,18,14,52,999.83
2022,07,18,14,53,999.76
2022,07,18,14,54,999.83
2022,07,18,14,55,999.80
2022,07,18,14,56,999.80
2022,07,18,14,57,999.80
2022,07,18,14,58,999.83
2022,07,18,14,59,999.83
2022,07,18,15,00,999.83
2022,07,18,15,01,999.87
2022,07,18,15,02,999.87
2022,07,18,15,03,999.90
2022,07,18,15,04,999.97
2022,07,18,15,05,999.97
2022,07,18,15,06,1000.00
2022,07,18,15,07,1000.00
2022,07,18,15,08,1000.03
2022,07,18,15,09,1000.03
2022,07,18,15,10,1000.07
2022,07,18,15,11,1000.07
2022,07,18,15,12,1000.10
2022,07,18,15,13,1000.10
2022,07,18,15,14,1000.07
2022,07,18,15,15,1000.07
2022,07,18,15,16,1000.14
2022,07,18,15,17,1000.10
2022,07,18,15,18,1000.07
2022,07,18,15,19,1000.14
2022,07,18,15,20,1000.10
2022,07,18,15,21,1000.10
2022,07,18,15,22,1000.14
2022,07,18,15,23,1000.14
2022,07,18,15,24,1000.17
2022,07,18,15,25,1000.20
2022,07,18,15,26,1000.24
2022,07,18,15,27,1000.24
2022,07,18,15,28,1000.20
2022,07,18,15,29,1000.24
2022,07,18,15,30,1000.17
2022,07,18,15,31,1000.20
2022,07,18,15,32,1000.20
2022,07,18,15,33,1000.27
2022,07,18,15,34,1000.27
2022,07,18,15,35,1000.34
2022,07,18,15,36,1000.34
2022,07,18,15,37,1000.34
2022,07,18,15,38,1000.24
2022,07,18,15,39,1000.31
2022,07,18,15,40,1000.34
2022,07,18,15,41,1000.31
2022,07,18,15,42,1000.34
2022,07,18,15,43,1000.31
2022,07,18,15,44,1000.34
2022,07,18,15,45,1000.31
2022,07,18,15,46,1000.31
2022,07,18,15,47,1000.34
2022,07,18,15,48,1000.34
2022,07,18,15,49,1000.31
2022,07,18,15,50,1000.34
2022,07,18,15,51,1000.34
2022,07,18,15,52,1000.27
2022,07,18,15,53,1000.31
2022,07,18,15,54,1000.34
2022,07,18,15,55,1000.31
2022,07,18,15,56,1000.34
2022,07,18,15,57,1000.37
2022,07,18,15,58,1000.34
2022,07,18,15,59,1000.34
2022,07,18,16,00,1000.37
2022,07,18,16,01,1000.41
2022,07,18,16,02,1000.44
2022,07,18,16,03,1000.44
2022,07,18,16,04,1000.48
2022,07,18,16,05,1000.44
2022,07,18,16,06,1000.44
2022,07,18,16,07,1000.48
2022,07,18,16,08,1000.48
2022,07,18,16,09,1000.48
2022,07,18,16,10,1000.48
2022,07,18,16,11,1000.48
2022,07,18,16,12,1000.48
2022,07,18,16,13,1000.51
2022,07,18,16,14,1000.51
2022,07,18,16,15,1000.51
2022,07,18,16,16,1000.51
2022,07,18,16,17,1000.51
2022,07,18,16,18,1000.48
2022,07,18,16,19,1000.48
2022,07,18,16,20,1000.44
2022,07,18,16,21,1000.48
2022,07,18,16,22,1000.48
2022,07,18,16,23,1000.48
2022,07,18,16,24,1000.51
2022,07,18,16,25,1000.51
2022,07,18,16,26,1000.54
2022,07,18,16,27,1000.54
2022,07,18,16,28,1000.58
2022,07,18,16,29,1000.58
2022,07,18,16,30,1000.61
2022,07,18,16,31,1000.61
2022,07,18,16,32,1000.64